This is the latest recevied weather packets stored in our database for station/object N6GPM. If no packets are shown the sender has not sent any weather packets the latest 10 day(s).
| Time | Temp. | Humidity | Pressure | Rain* | Wind** | Luminosity | Snow |
|---|---|---|---|---|---|---|---|
| 1787871576 | 34.44° C | 27% | 1015.6 hPa | 0 mm | - | 387 W/m² | - |
| 1787871272 | 33.89° C | 29% | 1015.8 hPa | 0 mm | - | 351 W/m² | - |
| 1787870967 | 34.44° C | 33% | 1015.9 hPa | 0 mm | - | 405 W/m² | - |
| 1787870667 | 33.89° C | 32% | 1016 hPa | 0 mm | - | 408 W/m² | - |
| 1787870366 | 33.89° C | 35% | 1015.7 hPa | 0 mm | - | 410 W/m² | - |
| 1787870062 | 34.44° C | 36% | 1016.3 hPa | 0 mm | - | 339 W/m² | - |
| 1787869760 | 34.44° C | 37% | 1016.1 hPa | 0 mm | - | 334 W/m² | - |
| 1787869455 | 34.44° C | 34% | 1016.2 hPa | 0 mm | - | 343 W/m² | - |
| 1787869150 | 34.44° C | 37% | 1016.1 hPa | 0 mm | - | 340 W/m² | - |
| 1787868850 | 34.44° C | 39% | 1016.1 hPa | 0 mm | - | 368 W/m² | - |
| 1787868548 | 34.44° C | 36% | 1016.2 hPa | 0 mm | - | 404 W/m² | - |
| 1787868247 | 34.44° C | 37% | 1016.4 hPa | 0 mm | - | 476 W/m² | - |
| 1787867942 | 35° C | 36% | 1016.5 hPa | 0 mm | - | 532 W/m² | - |
| 1787867638 | 35° C | 39% | 1016.8 hPa | 0 mm | - | 504 W/m² | - |
| 1787867332 | 35° C | 38% | 1016.5 hPa | 0 mm | - | 519 W/m² | - |
| 1787867028 | 34.44° C | 38% | 1016.6 hPa | 0 mm | - | 485 W/m² | - |
| 1787866723 | 33.89° C | 40% | 1016.8 hPa | 0 mm | - | 530 W/m² | - |
| 1787866422 | 34.44° C | 40% | 1016.7 hPa | 0 mm | - | 533 W/m² | - |
| 1787866117 | 34.44° C | 40% | 1016.8 hPa | 0 mm | - | 532 W/m² | - |
| 1787865817 | 35° C | 40% | 1016.9 hPa | 0 mm | - | 500 W/m² | - |
| 1787865513 | 35° C | 38% | 1017 hPa | 0 mm | - | 545 W/m² | - |
| 1787865207 | 35.56° C | 38% | 1017 hPa | 0 mm | - | 616 W/m² | - |
| 1787864904 | 36.11° C | 35% | 1016.8 hPa | 0 mm | - | 600 W/m² | - |
| 1787864598 | 36.11° C | 32% | 1016.7 hPa | 0 mm | - | 698 W/m² | - |
| 1787864292 | 36.67° C | 29% | 1016.8 hPa | 0 mm | - | 1006 W/m² | - |
* Rain latest hour (hover to see other rain measurements)
** Current wind speed in m/s (hover to see current wind gust speed)